Regional Weather Roundup
Issued by NWS

Home | Current Version | Previous Version | Graphics & Text | Print | Product List | Glossary Off
Versions: 1 2 3 4 5 6 7 8 9 10 11 12 13 14 15 16 17 18 19 20 21 22 23 24 25 26 27 28 29 30 31 32 33 34 35 36 37 38 39 40 41 42 43 44 45 46 47 48 49 50

000
ASUS43 KMPX 211910
RWRMN
WEATHER ROUNDUP FOR MINNESOTA
NATIONAL WEATHER SERVICE TWIN CITIES/CHANHASSEN MN
100 PM CST WED FEB 21 2018


NOTE: "FAIR" INDICATES FEW OR NO CLOUDS BELOW 12,000 FEET WITH NO
SIGNIFICANT WEATHER AND/OR OBSTRUCTIONS TO VISIBILITY. N/A MEANS
CURRENT SKY AND/OR WEATHER CONDITIONS ARE NOT AVAILABLE.

MNZ060>063-068>070-212000-
   Twin Cities Metro

CITY           SKY/WX    TMP DP  RH WIND       PRES   REMARKS
TWIN CITIES    FAIR      16   3  56 SW7       30.63F WCI   6
ST PAUL        FAIR      16   3  56 SW5       30.64F WCI   9
CRYSTAL        FAIR      16   0  49 W6        30.61F WCI   7
BLAINE         MOSUNNY   19   3  49 SW7       30.60F WCI  10
LAKEVILLE      FAIR      16   3  57 W5        30.63S WCI   9
EDEN PRAIRIE   FAIR      15   3  59 S7        30.62F WCI   5
SOUTH ST PAUL  FAIR      18   2  50 SW7       30.63S WCI   9
LAKE ELMO      FAIR      18   5  57 S5        30.62F WCI  11
$$
MNZ001>005-007-008-013>017-022>024-027-028-212000-
   Northwest Minnesota

CITY           SKY/WX    TMP DP  RH WIND       PRES   REMARKS
BEMIDJI        FAIR      17   1  49 SW10      30.45R WCI   5
HALLOCK        FAIR       7  -2  66 S14       30.46R WCI -10
ROSEAU         FAIR       9   0  66 SW12      30.43S WCI  -6
WARROAD        FAIR      10   0  61 SW12      30.42S WCI  -4
THIEF RVR FALL FAIR       3  -5  69 SW17      30.47F WCI -17
CROOKSTON      FAIR       7   0  72 SW20      30.52R WCI -13
FOSSTON        FAIR       7  -6  56 SW14      30.50R WCI -10
DETROIT LAKES  FAIR      10  -2  56 S6        30.52R WCI   1
MOORHEAD       FAIR       7  -6  56 S9        30.56S WCI  -7
PARK RAPIDS    MIX PCPN  13  -1  54 SW10      30.49R WCI   0
MAHNOMEN       FAIR       5  -4  66 SW15      30.51R WCI -13
$$
MNZ006-009>011-018-025>026-212000-
   North Central Minnesota

CITY           SKY/WX    TMP DP  RH WIND       PRES   REMARKS
BAUDETTE         N/A     13   1  59 SW8       30.41R WCI   2
FLAG ISLAND    FAIR       9   1  72 S14       30.38R WCI  -8
INTL FALLS     FAIR      15   2  56 SW13G18   30.42R WCI   1
WASKISH        FAIR       9   1  72 W6        30.46R WCI  -1
BIG FORK       FAIR      19   5  53 SW8       30.44S WCI   9
LONGVILLE      FAIR      19   1  45 SW6       30.50R WCI  11
GRAND RAPIDS   FAIR      19   2  47 SW8       30.49S WCI   9
CRANE LAKE     FAIR      14   3  62 S6        30.46R WCI   5
ORR            FAIR      18   1  49 SW6       30.41R WCI   9
COOK             N/A     18   3  53 SW8       30.45R WCI   7
WALKER         FAIR      17  -2  43 SW13      30.48R WCI   3
$$
MNZ012-019>021-037-212000-
   Northeast Minnesota

CITY           SKY/WX    TMP DP  RH WIND       PRES   REMARKS
DULUTH         FAIR      19   5  54 W15       30.48S WCI   5
ELY            FAIR      16   3  57 S8        30.44R WCI   5
HIBBING        FAIR      17   1  49 SW8       30.47R WCI   7
EVELETH        FAIR     N/A N/A N/A SW10      30.48R
DULUTH HARBOR  FAIR      19   7  58 SW13      30.56R WCI   7
TWO HARBORS    FAIR      27   9  46 MISG      30.47F
SILVER BAY     FAIR      25   9  50 W8        30.45  WCI  16
GRAND MARAIS     N/A     20  11  68 SW16      30.50S WCI   6
G MARAIS ARPRT FAIR      16   3  57 SW6       30.39R WCI   7
$$
MNZ029>031-032-039>041-046>048-054>057-064-212000-
   West Central Minnesota

CITY           SKY/WX    TMP DP  RH WIND       PRES   REMARKS
FERGUS FALLS   FAIR       9  -2  61 S6        30.57S WCI  -1
WHEATON        FAIR      12  -2  52 S6        30.59S WCI   3
MORRIS         FAIR      16   1  53 S10       30.59R WCI   3
ALEXANDRIA     FAIR      11  -1  58 S12       30.56R WCI  -3
ELBOW LAKE     FAIR      10  -2  58 W5        30.56S WCI   2
WADENA         FAIR      12  -2  52 SW8       30.52S WCI   1
GLENWOOD       FAIR      16   1  53 S8        30.56F WCI   5
APPLETON       FAIR      16   0  48 S3        30.59F
BENSON         FAIR      12   0  57 W6        30.61F WCI   3
ORTONVILLE     FAIR      18  -2  41 SW5       30.58S WCI  11
MADISON        FAIR      19   1  45 SW5       30.59F WCI  13
WILLMAR        FAIR      12   1  62 W8        30.61F WCI   1
$$
MNZ033>034-036-042>043-049>051-058-059-212000-
   Central Minnesota

CITY           SKY/WX    TMP DP  RH WIND       PRES   REMARKS
ST CLOUD       FAIR      13   2  61 SW9       30.58S WCI   1
SAUK CENTRE    FAIR      13   1  60 S9        30.57F WCI   0
PAYNESVILLE    FAIR      15   2  58 SW5       30.58F WCI   7
AITKIN         FAIR      18   0  45 SW3       30.52S
PINE RIVER     FAIR      16   0  48 SW7       30.54R WCI   6
BRAINERD       FAIR      18   0  45 SW6       30.54R WCI  10
STAPLES        FAIR      16  -2  45 SW10      30.54R WCI   3
LONG PRAIRIE   FAIR      14   1  57 S8        30.56S WCI   3
LITTLE FALLS   FAIR      14  -6  41 SW7       30.57F WCI   4
LITCHFIELD     FAIR      16   3  57 SW6       30.60S WCI   7
BUFFALO        FAIR      16   1  52 S8        30.62S WCI   5
MAPLE LAKE     FAIR      18   4  54 SW5       30.60F WCI  11
HUTCHINSON     FAIR      17   5  60 SW7       30.62R WCI   7
$$
MNZ037-044-045-052-053-212000-
   East Central Minnesota

CITY           SKY/WX    TMP DP  RH WIND       PRES   REMARKS
PRINCETON      FAIR      19   1  45 SW7       30.59S WCI  10
MORA           FAIR      18   1  49 W8        30.59S WCI   7
CAMBRIDGE      FAIR      18   3  53 SW6       30.60S WCI   9
RUSH CITY      FAIR      17   1  48 SW7       30.60S WCI   8
MOOSE LAKE     FAIR      21   3  45 S6        30.52S WCI  14
HINCKLEY       FAIR      18   1  49 SW7       30.57F WCI   8
CLOQUET        FAIR      18   1  49 SW12      30.50S WCI   5
MCGREGOR       FAIR      19   1  45 SW12      30.54R WCI   7
$$
MNZ071>073-080-081-089-090-097-098-212000-
   Southwest Minnesota

CITY           SKY/WX    TMP DP  RH WIND       PRES   REMARKS
MONTEVIDEO     FAIR      19   1  45 W6        30.60F WCI  11
GRANITE FALLS  FAIR      17   4  58 SW7       30.62F WCI   7
CANBY          FAIR      18   1  48 SW8       30.59F WCI   7
MARSHALL       FAIR      17   4  56 W10       30.59F WCI   5
REDWOOD FALLS  FAIR      14   0  53 W7        30.61F WCI   4
OLIVIA         FAIR      16   3  57 SW7       30.60S WCI   6
PIPESTONE      FAIR       9   0  66 W7        30.56S WCI  -3
WORTHINGTON    FAIR      19   3  49 W10       30.57F WCI   7
JACKSON        FAIR      16   1  53 W6        30.59F WCI   7
TRACY          FAIR      17   6  62 SW8       30.57F WCI   7
SLAYTON        FAIR      14   2  60 SW10      30.57S WCI   1
$$
MNZ065>067-074>077-082>085-091>093-212000-
   South Central Minnesota

CITY           SKY/WX    TMP DP  RH WIND       PRES   REMARKS
MANKATO        FAIR      18   5  57 SW7       30.63F WCI   9
NEW ULM        FAIR      12   1  62 SW5       30.62S WCI   4
ST JAMES       FAIR      16   3  57 SW5       30.63S WCI   9
FAIRMONT       FAIR      18   5  57 SW6       30.63S WCI  10
GLENCOE        FAIR      16   5  61 SW5       30.61S WCI   9
FARIBAULT      FAIR      16   5  62 S6        30.62F WCI   7
OWATONNA       FAIR      16   7  67 SW5       30.61S WCI   9
WASECA         FAIR      14   7  73 SW6       30.63S WCI   5
ALBERT LEA     FAIR      18   5  57 CALM      30.60S
$$
MNZ078>079-086>088-094>096-212000-
   Southeast Minnesota

CITY           SKY/WX    TMP DP  RH WIND       PRES   REMARKS
ROCHESTER      FAIR      17   9  70 SW5       30.60F WCI  10
RED WING       FAIR      18   1  49 SW5       30.64F WCI  11
STANTON        FAIR      17   6  61 SW7       30.62F WCI   8
DODGE CENTER   FAIR      16   3  57 W5        30.60R WCI   9
WINONA         FAIR      21   9  58 W6        30.64S WCI  14
AUSTIN         FAIR      18   5  57 CALM      30.61S
PRESTON        FAIR      18  10  71 W3        30.60S
$$
ABBREVIATIONS USED IN REMARKS
   TC - TEMPERATURES IN CELSIUS
  WCI - WIND CHILL INDEX
   HX - HEAT INDEX
  VSB - VISIBILITY
$$




USA.gov is the U.S. government's official web portal to all federal, state and local government web resources and services.